GW1715 Weather Reports


time (UTC)temp
C
wind
direction
speed
KPH
gust
KPH
rain 1hr
cm
rain 24hr
cm
rain mn
cm
humidity
%
barometer
mb
20260510104548 5 0 0.0 0.0 0.00 0.00 0.00 95 1014.6
20260510103044 5 0 0.0 0.0 0.00 0.00 0.00 94 1014.1
20260510101544 5 0 0.0 0.0 0.00 0.00 0.00 94 1014.0
20260510094551 5 0 0.0 0.0 0.00 0.00 0.00 94 1013.6
20260510093039 5 0 0.0 0.0 0.00 0.00 0.00 94 1013.7
20260510091539 5 0 0.0 0.0 0.00 0.00 0.00 94 1013.6
20260510090048 5 0 0.0 1.6 0.00 0.00 0.00 94 1013.4
20260510084602 6 0 0.0 0.0 0.00 0.00 0.00 94 1013.4
20260510083041 6 0 0.0 0.0 0.00 0.00 0.00 94 1013.4
20260510081548 6 0 0.0 0.0 0.00 0.00 0.00 93 1013.4
20260510080039 6 0 0.0 0.0 0.00 0.00 0.00 94 1013.3
20260510074542 5 202 0.0 3.2 0.00 0.00 0.00 93 1013.2
20260510073040 5 0 0.0 0.0 0.00 0.00 0.00 93 1013.3
20260510071545 5 0 0.0 0.0 0.00 0.00 0.00 93 1013.1
20260510070047 6 0 0.0 0.0 0.00 0.00 0.00 93 1013.1
20260510064538 6 0 0.0 0.0 0.00 0.00 0.00 92 1013.1
20260510063038 6 0 0.0 0.0 0.00 0.00 0.00 92 1013.1
20260510061541 6 0 0.0 0.0 0.00 0.00 0.00 92 1013.3
20260510060046 6 0 0.0 0.0 0.00 0.00 0.00 92 1013.1
20260510054542 6 0 0.0 0.0 0.00 0.00 0.00 90 1013.1
20260510053041 7 0 0.0 1.6 0.00 0.00 0.00 91 1013.1
20260510051543 7 0 0.0 1.6 0.00 0.00 0.00 90 1013.4
20260510050040 7 0 0.0 1.6 0.00 0.00 0.00 90 1013.4
20260510044538 7 0 0.0 1.6 0.00 0.00 0.00 88 1013.4
20260510043048 8 0 0.0 1.6 0.00 0.00 0.00 87 1013.5
20260510041540 8 241 1.6 4.8 0.00 0.00 0.00 90 1013.5
20260510040050 8 221 0.0 3.2 0.00 0.00 0.00 89 1013.3
20260510034544 8 0 0.0 0.0 0.00 0.00 0.00 87 1013.0
20260510033046 8 0 0.0 0.0 0.00 0.00 0.00 87 1013.0
20260510031542 9 0 0.0 0.0 0.00 0.00 0.00 85 1012.9
20260510030042 9 0 0.0 0.0 0.00 0.00 0.00 86 1012.8
20260510024544 9 0 0.0 0.0 0.00 0.00 0.00 85 1012.7
20260510023037 10 0 0.0 0.0 0.00 0.00 0.00 83 1012.4
20260510021543 10 0 0.0 0.0 0.00 0.00 0.00 81 1012.4
20260510020044 11 0 0.0 0.0 0.00 0.00 0.00 80 1012.2
20260510014543 11 0 0.0 0.0 0.00 0.00 0.00 79 1012.0
20260510013038 12 0 0.0 1.6 0.00 0.00 0.00 77 1011.7
20260510011542 12 0 0.0 1.6 0.00 0.00 0.00 75 1011.5
20260510010044 13 0 0.0 1.6 0.00 0.00 0.00 72 1011.4
20260510004544 14 0 0.0 1.6 0.00 0.00 0.00 69 1011.1
20260510003042 15 0 0.0 4.8 0.00 0.00 0.00 66 1011.0
20260510001541 15 250 3.2 11.3 0.00 0.00 0.00 64 1010.8
20260510000059 16 210 8.0 14.5 0.00 0.00 0.00 62 1010.8
20260509234555 16 254 3.2 12.9 0.00 0.00 0.00 61 1010.6
20260509233047 16 241 6.4 11.3 0.00 0.00 0.00 60 1010.5
20260509231544 16 232 3.2 11.3 0.00 0.00 0.00 61 1010.4
20260509230041 17 256 9.7 22.5 0.00 0.00 0.00 58 1010.3
20260509224537 17 230 8.0 14.5 0.00 0.00 0.00 58 1010.6
20260509223042 17 360 12.9 24.1 0.00 0.00 0.00 57 1010.7
20260509221546 17 255 16.1 24.1 0.00 0.00 0.00 55 1010.6
20260509220041 17 220 8.0 17.7 0.00 0.00 0.00 57 1010.8
20260509214542 17 261 11.3 20.9 0.00 0.00 0.00 55 1010.8
20260509213042 17 240 8.0 24.1 0.00 0.00 0.00 54 1010.6
20260509211543 17 227 4.8 19.3 0.00 0.00 0.00 54 1010.4
20260509210044 17 255 14.5 25.7 0.00 0.00 0.00 53 1010.6
20260509204550 17 240 12.9 22.5 0.00 0.00 0.00 50 1010.2
20260509203043 17 216 9.7 24.1 0.00 0.00 0.00 50 1010.1
20260509201540 17 261 8.0 17.7 0.00 0.00 0.00 51 1009.8
20260509200058 17 232 12.9 25.7 0.00 0.00 0.00 49 1009.9
20260509194540 17 257 9.7 22.5 0.00 0.00 0.00 47 1009.9
20260509193038 17 234 8.0 19.3 0.00 0.00 0.00 55 1009.9
20260509191544 17 244 11.3 17.7 0.00 0.00 0.00 54 1009.9
20260509190042 17 233 11.3 20.9 0.00 0.00 0.00 55 1010.0
20260509184554 17 219 17.7 24.1 0.00 0.00 0.00 57 1009.9
20260509183042 17 254 14.5 25.7 0.00 0.00 0.00 60 1010.1
20260509181548 17 281 6.4 16.1 0.00 0.00 0.00 61 1010.1
20260509180037 17 294 6.4 16.1 0.00 0.00 0.00 62 1010.1
20260509174540 16 320 12.9 20.9 0.00 0.00 0.00 61 1010.1
20260509173052 16 229 9.7 22.5 0.00 0.00 0.00 64 1010.2
20260509171539 16 193 4.8 17.7 0.00 0.00 0.00 63 1010.4
20260509170039 15 217 8.0 14.5 0.00 0.00 0.00 63 1010.4
20260509164545 15 231 9.7 19.3 0.00 0.00 0.00 63 1010.8
20260509163042 15 202 9.7 19.3 0.00 0.00 0.00 66 1010.9
20260509161538 15 242 9.7 19.3 0.00 0.00 0.00 65 1010.6
20260509160045 15 261 8.0 25.7 0.00 0.00 0.00 65 1010.6
20260509154540 15 225 4.8 14.5 0.00 0.00 0.00 68 1010.7
20260509153044 14 200 8.0 20.9 0.00 0.00 0.00 68 1010.8
20260509151549 13 261 9.7 19.3 0.00 0.00 0.00 67 1011.0
20260509150044 14 222 8.0 16.1 0.00 0.00 0.00 66 1010.7
20260509144600 14 244 11.3 19.3 0.00 0.00 0.00 65 1010.8
20260509143041 13 245 8.0 16.1 0.00 0.00 0.00 66 1010.7
20260509141541 14 267 9.7 17.7 0.00 0.00 0.00 66 1010.5
20260509140040 14 236 9.7 19.3 0.00 0.00 0.00 64 1010.5
20260509134601 14 236 11.3 24.1 0.00 0.00 0.00 64 1010.2
20260509133047 14 255 4.8 19.3 0.00 0.00 0.00 62 1010.1
20260509131541 13 232 8.0 17.7 0.00 0.00 0.00 64 1010.0
20260509130052 13 210 3.2 11.3 0.00 0.00 0.00 66 1010.4
20260509124538 13 265 1.6 6.4 0.00 0.00 0.00 67 1010.6
20260509123100 12 257 1.6 8.0 0.00 0.00 0.00 70 1010.7
20260509121555 10 209 1.6 4.8 0.00 0.00 0.00 75 1010.8
20260509120041 9 0 0.0 1.6 0.00 0.00 0.00 84 1010.7
20260509114541 8 0 0.0 0.0 0.00 0.00 0.00 86 1010.9
20260509113040 8 0 0.0 0.0 0.00 0.00 0.00 86 1010.7
20260509111551 8 0 0.0 0.0 0.00 0.00 0.00 85 1010.8
20260509110043 8 0 0.0 3.2 0.00 0.00 0.00 85 1010.7